Change the Weather History Date:

Saturday, March 8, 2014

  Actual Average Record
Temperature  
Mean Temperature 32 °F 31 °F  
Max Temperature 38 °F 40 °F 75 °F (2000)
Min Temperature 26 °F 23 °F -7 °F (1999)
Degree Days  
Heating Degree Days 33 34  
Month to date heating degree days 380 278  
Since 1 July heating degree days 5465 5064  
Cooling Degree Days 0 0  
Month to date cooling degree days 0 0  
Year to date cooling degree days 0 0  
Moisture  
Dew Point 26 °F    
Average Humidity 78    
Maximum Humidity 92    
Minimum Humidity 64    
Precipitation  
Precipitation T in 0.08 in 1.62 in (1930)
Month to date precipitation 0.12 0.62  
Year to date precipitation 3.74 4.98  
Snow  
Snow 0.10 in 0.70 in 8.50 in (1931)
Month to date snowfall 3.3 5.6  
Since 1 July snowfall 86.4 84.5  
Snow Depth 1.00 in    
Sea Level Pressure  
Sea Level Pressure 29.96 in    
Wind  
Wind Speed 8 mph (NW)    
Max Wind Speed 17 mph    
Max Gust Speed 25 mph    
Visibility 6 miles    
Events Rain , Snow    
T = Trace of Precipitation, MM = Missing Value Source: NWS Daily Summary

Daily Weather History Graph

Daily Weather History Graph

Search for Another Location

Airport or City:

Trip Planner

Search our weather history database for the weather conditions in past years. The results will help you decide how hot, cold, wet, or windy it might be!

Date:

Astronomy

Mar. 08, 2014 Rise Set
Actual Time 6:34 AM EST 6:08 PM EST
Civil Twilight 6:06 AM EST 6:36 PM EST
Nautical Twilight 5:33 AM EST 7:09 PM EST
Astronomical Twilight 5:00 AM EST 7:43 PM EST
Moon 11:04 AM EST (3/8) 1:14 AM EST (3/8)
Length of Visible Light 12h 30m
Length of Day
11h 33m
First Quarter, 51% of the Moon is Illuminated
Mar 8
First Quarter
Mar 16
Full
Mar 23
Last Quarter
Mar 30
New
Apr 7
First Quarter

Hourly Weather History & Observations

Time (EST) Temp. Windchill Dew Point Humidity Pressure Visibility Wind Dir Wind Speed Gust Speed Precip Events Conditions
12:54 AM 27.0 °F 21.6 °F 21.9 °F 81% 29.89 in 10.0 mi SW 4.6 mph - N/A   Partly Cloudy
1:54 AM 30.0 °F 24.1 °F 24.1 °F 79% 29.88 in 10.0 mi SW 5.8 mph - N/A   Partly Cloudy
2:54 AM 32.0 °F 28.7 °F 25.0 °F 75% 29.87 in 10.0 mi SW 3.5 mph - N/A   Scattered Clouds
3:54 AM 33.1 °F 30.0 °F 25.0 °F 72% 29.86 in 10.0 mi SW 3.5 mph - N/A   Mostly Cloudy
4:54 AM 33.1 °F 28.7 °F 26.1 °F 75% 29.86 in 10.0 mi SW 4.6 mph - N/A   Overcast
5:54 AM 36.0 °F 30.3 °F 26.1 °F 67% 29.88 in 10.0 mi West 6.9 mph - N/A   Overcast
6:54 AM 36.0 °F 31.1 °F 26.1 °F 67% 29.88 in 10.0 mi West 5.8 mph - N/A   Overcast
7:54 AM 37.0 °F 29.8 °F 26.1 °F 65% 29.91 in 9.0 mi West 10.4 mph - N/A   Overcast
8:54 AM 37.0 °F 29.8 °F 26.1 °F 65% 29.93 in 9.0 mi West 10.4 mph - N/A   Overcast
9:54 AM 37.0 °F 28.1 °F 26.1 °F 65% 29.95 in 9.0 mi WNW 15.0 mph - N/A   Overcast
10:54 AM 37.9 °F 30.0 °F 28.0 °F 68% 29.95 in 8.0 mi NNW 12.7 mph - N/A   Overcast
11:03 AM 37.4 °F 29.3 °F 28.4 °F 70% 29.93 in 8.0 mi NNW 12.7 mph - N/A   Overcast
11:54 AM 36.0 °F 29.0 °F 28.9 °F 76% 29.97 in 5.0 mi NNW 9.2 mph - N/A   Haze
12:12 PM 35.6 °F 28.0 °F 28.4 °F 75% 29.94 in 5.0 mi North 10.4 mph - N/A   Haze
12:54 PM 33.1 °F 24.9 °F 28.9 °F 85% 29.97 in 2.5 mi North 10.4 mph - 0.00 in   Light Drizzle
1:54 PM 33.1 °F 26.9 °F 28.9 °F 85% 29.98 in 2.0 mi North 6.9 mph - 0.00 in   Overcast
2:54 PM 32.0 °F 24.8 °F 28.0 °F 85% 29.99 in 2.5 mi NNE 8.1 mph - N/A   Overcast
2:57 PM 32.0 °F 24.8 °F 28.4 °F 87% 29.96 in 4.0 mi NNE 8.1 mph - N/A   Overcast
3:54 PM 32.0 °F 26.4 °F 28.9 °F 88% 29.98 in 2.5 mi NE 5.8 mph - 0.00 in Snow Light Snow
4:54 PM 32.0 °F 25.6 °F 28.0 °F 85% 29.99 in 2.5 mi North 6.9 mph - 0.00 in Snow Light Snow
5:23 PM 30.2 °F 24.3 °F 28.4 °F 93% 29.97 in 3.0 mi North 5.8 mph - 0.00 in Snow Light Snow
5:54 PM 30.9 °F 24.3 °F 27.0 °F 85% 30.01 in 4.0 mi North 6.9 mph - 0.00 in Snow Light Snow
6:30 PM 30.2 °F 26.7 °F 26.6 °F 86% 30.00 in 3.0 mi North 3.5 mph - 0.01 in Snow Light Snow
6:54 PM 30.0 °F 26.5 °F 28.0 °F 92% 30.03 in 3.0 mi NNW 3.5 mph - 0.01 in Snow Light Snow
7:54 PM 30.0 °F 26.5 °F 27.0 °F 88% 30.03 in 5.0 mi West 3.5 mph - 0.00 in Snow Light Snow
8:54 PM 30.9 °F 25.2 °F 27.0 °F 85% 30.03 in 5.0 mi West 5.8 mph - 0.00 in Snow Light Snow
9:54 PM 30.9 °F 23.5 °F 26.1 °F 82% 30.04 in 7.0 mi West 8.1 mph - 0.00 in Snow Light Snow
10:02 PM 30.2 °F 21.3 °F 26.6 °F 86% 30.01 in 9.0 mi WNW 10.4 mph - 0.00 in   Overcast
10:23 PM 30.2 °F 21.9 °F 24.8 °F 80% 30.01 in 6.0 mi WNW 9.2 mph - 0.00 in Snow Light Snow
10:54 PM 30.0 °F 21.1 °F 24.1 °F 79% 30.04 in 6.0 mi WNW 10.4 mph - 0.00 in Snow Light Snow
11:27 PM 28.4 °F 20.4 °F 21.2 °F 74% 30.01 in 9.0 mi WNW 8.1 mph - 0.00 in   Overcast
11:54 PM 28.9 °F 19.2 °F 19.9 °F 69% 30.04 in 10.0 mi WNW 11.5 mph - 0.00 in   Overcast